Date String (YYYY-MM-DD hh:mm:ss) UTC,Instrument flags,Ambient pressure (hPa),Sample flow (lpm),Bypass flow (lpm),Sample temperature (°C),Ambient temperature (°C),ASC tube jacket temperature (°C),LED temperature (°C),Box temperature (°C),Sample RH (%),Span deviation,Mass concentration (μg/m³),Mass concentration (μg/m³),Mass concentration (μg/m³)
DateTimeUTC,F1_M11,P_M11,Q1_M11,Q2_M11,T1_M11,T2_M11,T3_M11,T4_M11,T5_M11,U1_M11,ZSPAN_M11,X0_M11,X2_M11,X1_M11
2021-10-15 19:00:00,,0832.0,5.01,0.00,26.2,25.4,00.0,35.2,28.1,08.6,0000.0,0005.48,0002.70,0002.35
2021-10-15 19:01:00,,0832.0,4.99,0.00,26.2,25.5,00.0,35.2,28.1,08.5,0000.0,0005.40,0002.71,0002.34
2021-10-15 19:02:00,,0832.1,5.01,0.00,26.3,25.5,00.0,35.2,28.1,08.6,0000.0,0005.78,0002.72,0002.33
2021-10-15 19:03:00,,0832.1,5.00,0.00,26.3,25.6,00.0,35.2,28.2,08.5,0000.0,0006.01,0002.72,0002.31
2021-10-15 19:04:00,,0832.1,4.99,0.00,26.3,25.6,00.0,35.2,28.2,08.4,0000.0,0005.92,0002.71,0002.31
2021-10-15 19:05:00,,0832.1,5.01,0.00,26.3,25.6,00.0,35.3,28.2,08.5,0000.0,0006.08,0002.70,0002.30
2021-10-15 19:06:00,,0832.1,4.99,0.00,26.3,25.6,00.0,35.3,28.2,08.5,0000.0,0006.03,0002.69,0002.29
2021-10-15 19:07:00,,0832.0,5.01,0.00,26.4,25.7,00.0,35.3,28.3,08.5,0000.0,0006.04,0002.68,0002.29
2021-10-15 19:08:00,,0832.1,4.99,0.00,26.4,25.7,00.0,35.3,28.3,08.5,0000.0,0005.14,0002.67,0002.29
2021-10-15 19:09:00,,0832.1,5.01,0.00,26.4,25.6,00.0,35.3,28.3,08.4,0000.0,0004.78,0002.68,0002.30
2021-10-15 19:10:00,,0832.1,5.00,0.00,26.4,25.6,00.0,35.4,28.3,08.3,0000.0,0004.79,0002.69,0002.31
2021-10-15 19:11:00,,0832.0,5.00,0.00,26.4,25.6,00.0,35.4,28.3,08.4,0000.0,0004.90,0002.70,0002.31
2021-10-15 19:12:00,,0832.0,5.01,0.00,26.4,25.6,00.0,35.4,28.3,08.2,0000.0,0005.48,0002.71,0002.32
2021-10-15 19:13:00,,0831.9,5.00,0.00,26.4,25.6,00.0,35.4,28.3,08.4,0000.0,0006.47,0002.74,0002.34
2021-10-15 19:14:00,,0831.9,4.99,0.00,26.4,25.6,00.0,35.4,28.3,08.3,0000.0,0006.37,0002.72,0002.34
2021-10-15 19:15:00,,0831.9,5.00,0.00,26.4,25.6,00.0,35.4,28.3,08.3,0000.0,0006.52,0002.76,0002.34
2021-10-15 19:16:00,,0831.9,5.01,0.00,26.5,25.6,00.0,35.4,28.3,08.4,0000.0,0006.91,0002.78,0002.36
2021-10-15 19:17:00,,0832.0,5.00,0.00,26.5,25.7,00.0,35.4,28.3,08.2,0000.0,0007.55,0002.81,0002.38
2021-10-15 19:18:00,,0832.0,5.00,0.00,26.5,25.7,00.0,35.4,28.3,08.2,0000.0,0007.61,0002.85,0002.39
2021-10-15 19:19:00,,0832.0,4.99,0.00,26.5,25.7,00.0,35.5,28.3,08.3,0000.0,0007.65,0002.88,0002.38
2021-10-15 19:20:00,,0832.0,5.00,0.00,26.5,25.7,00.0,35.5,28.3,08.2,0000.0,0007.69,0002.88,0002.36
2021-10-15 19:21:00,,0832.0,5.00,0.00,26.5,25.7,00.0,35.5,28.3,08.1,0000.0,0007.69,0002.85,0002.34
2021-10-15 19:22:00,,0832.0,5.00,0.00,26.5,25.7,00.0,35.5,28.3,08.2,0000.0,0007.54,0002.81,0002.32
2021-10-15 19:23:00,,0831.9,5.00,0.00,26.5,25.7,00.0,35.5,28.4,08.1,0000.0,0007.14,0002.77,0002.29
2021-10-15 19:24:00,,0832.0,4.99,0.00,26.5,25.8,00.0,35.5,28.4,08.4,0000.0,0005.95,0002.73,0002.25
2021-10-15 19:25:00,,0832.0,5.00,0.00,26.6,25.8,00.0,35.5,28.4,08.5,0000.0,0005.67,0002.72,0002.22
2021-10-15 19:26:00,,0832.0,5.01,0.00,26.6,25.8,00.0,35.5,28.5,08.4,0000.0,0005.42,0002.64,0002.20
2021-10-15 19:27:00,,0832.0,5.00,0.00,26.6,25.8,00.0,35.6,28.5,08.4,0000.0,0005.04,0002.59,0002.17
2021-10-15 19:28:00,,0831.9,5.00,0.00,26.6,25.8,00.0,35.6,28.5,08.2,0000.0,0003.96,0002.52,0002.15
2021-10-15 19:29:00,,0831.8,4.99,0.00,26.6,25.7,00.0,35.6,28.4,08.2,0000.0,0003.71,0002.51,0002.16
2021-10-15 19:30:00,,0831.8,5.00,0.00,26.6,25.7,00.0,35.6,28.4,08.2,0000.0,0003.70,0002.48,0002.16
2021-10-15 19:31:00,,0831.8,5.01,0.00,26.6,25.7,00.0,35.6,28.4,08.4,0000.0,0003.82,0002.48,0002.16
2021-10-15 19:32:00,,0831.7,4.99,0.00,26.6,25.8,00.0,35.6,28.4,08.5,0000.0,0004.10,0002.50,0002.17
2021-10-15 19:33:00,,0831.7,5.00,0.00,26.6,25.8,00.0,35.6,28.4,08.6,0000.0,0004.10,0002.49,0002.16
2021-10-15 19:34:00,,0831.7,5.01,0.00,26.6,25.8,00.0,35.6,28.5,08.5,0000.0,0004.11,0002.51,0002.18
2021-10-15 19:35:00,,0831.7,5.01,0.00,26.6,25.9,00.0,35.6,28.5,08.4,0000.0,0004.05,0002.50,0002.21
2021-10-15 19:36:00,,0831.7,4.99,0.00,26.7,25.9,00.0,35.6,28.5,08.5,0000.0,0003.99,0002.50,0002.24
2021-10-15 19:37:00,,0831.7,5.00,0.00,26.7,26.0,00.0,35.6,28.6,08.6,0000.0,0004.05,0002.54,0002.25
2021-10-15 19:38:00,,0831.7,5.00,0.00,26.7,26.0,00.0,35.6,28.6,08.4,0000.0,0003.94,0002.55,0002.26
2021-10-15 19:39:00,,0831.8,5.01,0.00,26.7,26.0,00.0,35.7,28.6,08.3,0000.0,0003.85,0002.55,0002.26
2021-10-15 19:40:00,,0831.7,5.01,0.00,26.7,26.0,00.0,35.7,28.6,08.5,0000.0,0003.92,0002.54,0002.25
2021-10-15 19:41:00,,0831.7,4.99,0.00,26.7,26.0,00.0,35.7,28.6,08.4,0000.0,0003.96,0002.55,0002.25
2021-10-15 19:42:00,,0831.7,5.00,0.00,26.8,26.0,00.0,35.7,28.6,08.6,0000.0,0005.28,0002.57,0002.26
2021-10-15 19:43:00,,0831.7,5.00,0.00,26.8,26.0,00.0,35.7,28.7,08.5,0000.0,0005.08,0002.56,0002.26
2021-10-15 19:44:00,,0831.7,4.99,0.00,26.8,26.1,00.0,35.7,28.7,08.6,0000.0,0005.08,0002.58,0002.28
2021-10-15 19:45:00,,0831.7,5.01,0.00,26.8,26.1,00.0,35.7,28.7,08.4,0000.0,0005.14,0002.61,0002.28
2021-10-15 19:46:00,,0831.7,4.99,0.00,26.8,26.1,00.0,35.8,28.7,08.3,0000.0,0005.17,0002.63,0002.27
2021-10-15 19:47:00,,0831.7,4.99,0.00,26.8,26.2,00.0,35.8,28.7,08.1,0000.0,0005.17,0002.62,0002.27
2021-10-15 19:48:00,,0831.7,5.00,0.00,26.9,26.2,00.0,35.8,28.8,08.1,0000.0,0005.70,0002.65,0002.27
2021-10-15 19:49:00,,0831.7,5.01,0.00,26.9,26.2,00.0,35.8,28.8,08.3,0000.0,0006.23,0002.65,0002.26
2021-10-15 19:50:00,,0831.6,4.99,0.00,26.9,26.2,00.0,35.8,28.8,08.0,0000.0,0006.20,0002.63,0002.26
2021-10-15 19:51:00,,0831.7,5.02,0.00,26.9,26.2,00.0,35.9,28.8,08.0,0000.0,0006.10,0002.61,0002.26
2021-10-15 19:52:00,,0831.7,5.01,0.00,26.9,26.3,00.0,35.9,28.8,08.1,0000.0,0006.18,0002.59,0002.24
2021-10-15 19:53:00,,0831.7,4.99,0.00,27.0,26.3,00.0,35.9,28.9,08.2,0000.0,0005.06,0002.55,0002.23
2021-10-15 19:54:00,,0831.6,4.99,0.00,27.0,26.3,00.0,35.9,28.9,08.4,0000.0,0004.58,0002.51,0002.22
2021-10-15 19:55:00,,0831.6,5.00,0.00,27.0,26.3,00.0,35.9,28.9,08.0,0000.0,0004.74,0002.53,0002.22
2021-10-15 19:56:00,,0831.7,5.00,0.00,27.0,26.4,00.0,35.9,28.9,08.1,0000.0,0004.72,0002.50,0002.23
2021-10-15 19:57:00,,0831.7,5.00,0.00,27.0,26.4,00.0,36.0,29.0,08.0,0000.0,0004.67,0002.47,0002.21
2021-10-15 19:58:00,,0831.7,5.00,0.00,27.1,26.4,00.0,36.0,29.0,08.0,0000.0,0004.65,0002.47,0002.21
2021-10-15 19:59:00,,0831.7,5.00,0.00,27.1,26.4,00.0,36.0,29.0,08.2,0000.0,0004.54,0002.45,0002.19
